Change the Weather History Date:

Tuesday, December 4, 2012

  Actual Average Record
Temperature  
Mean Temperature 12 °F -  
Max Temperature 17 °F 24 °F 42 °F (1982)
Min Temperature 8 °F 12 °F -23 °F (1991)
Degree Days  
Heating Degree Days 52    
Moisture  
Dew Point 7 °F    
Average Humidity 79    
Maximum Humidity 100    
Minimum Humidity 67    
Precipitation  
Precipitation 0.00 in - - ()
Sea Level Pressure  
Sea Level Pressure 30.20 in    
Wind  
Wind Speed 14 mph (NW)    
Max Wind Speed 21 mph    
Max Gust Speed 30 mph    
Visibility 10 miles    
Events      
Averages and records for this station are not official NWS values.
T = Trace of Precipitation, MM = Missing Value Source: NWS Daily Summary

Daily Weather History Graph

Daily Weather History Graph

Search for Another Location

Airport or City:

Trip Planner

Search our weather history database for the weather conditions in past years. The results will help you decide how hot, cold, wet, or windy it might be!

Date:

Astronomy

Dec. 04, 2012 Rise Set
Actual Time 7:57 AM CST 4:32 PM CST
Civil Twilight 7:22 AM CST 5:08 PM CST
Nautical Twilight 6:42 AM CST 5:47 PM CST
Astronomical Twilight 6:05 AM CST 6:24 PM CST
Moon 10:38 PM CST (12/4) 11:36 AM CST (12/4)
Length of Visible Light 9h 45m
Length of Day
8h 34m
Waning Gibbous, 69% of the Moon is Illuminated
Dec 4
Waning Gibbous
Dec 6
Last Quarter
Dec 13
New
Dec 19
First Quarter
Dec 28
Full

Hourly Weather History & Observations

Time (CST) Temp. Windchill Dew Point Humidity Pressure Visibility Wind Dir Wind Speed Gust Speed Precip Events Conditions
12:15 AM 12.2 °F -6.3 °F 6.8 °F 79% 29.90 in 10.0 mi WNW 20.7 mph 29.9 mph N/A   Clear
12:35 AM 12.2 °F -5.8 °F 5.0 °F 73% 29.91 in 10.0 mi WNW 19.6 mph 23.0 mph N/A   Clear
12:55 AM 12.2 °F -5.8 °F 5.0 °F 73% 29.92 in 10.0 mi WNW 19.6 mph 25.3 mph N/A   Partly Cloudy
1:15 AM 12.2 °F -5.3 °F 3.2 °F 67% 29.92 in 10.0 mi WNW 18.4 mph 25.3 mph N/A   Partly Cloudy
1:35 AM 12.2 °F -4.3 °F 5.0 °F 73% 29.93 in 10.0 mi WNW 16.1 mph 24.2 mph N/A   Clear
1:55 AM 12.2 °F -3.1 °F 6.8 °F 79% 29.95 in 10.0 mi West 13.8 mph - N/A   Clear
2:15 AM 12.2 °F -3.1 °F 6.8 °F 79% 29.96 in 10.0 mi WNW 13.8 mph - N/A   Clear
2:55 AM 10.4 °F -4.8 °F 6.8 °F 85% 29.99 in 10.0 mi WNW 12.7 mph 23.0 mph N/A   Mostly Cloudy
3:15 AM 12.2 °F -5.3 °F 6.8 °F 79% 30.00 in 10.0 mi WNW 18.4 mph - N/A   Overcast
3:35 AM 12.2 °F -5.3 °F 3.2 °F 67% 30.00 in 10.0 mi WNW 18.4 mph - N/A   Overcast
3:55 AM 12.2 °F -5.3 °F 5.0 °F 73% 30.01 in 10.0 mi WNW 18.4 mph 21.9 mph N/A   Overcast
4:15 AM 12.2 °F -4.3 °F 5.0 °F 73% 30.02 in 10.0 mi NW 16.1 mph 20.7 mph N/A   Overcast
4:35 AM 12.2 °F -5.8 °F 5.0 °F 73% 30.03 in 10.0 mi WNW 19.6 mph - N/A   Overcast
4:55 AM 12.2 °F -4.8 °F 5.0 °F 73% 30.04 in 10.0 mi WNW 17.3 mph 23.0 mph N/A   Overcast
5:15 AM 12.2 °F -4.8 °F 3.2 °F 67% 30.06 in 10.0 mi NW 17.3 mph 20.7 mph N/A   Mostly Cloudy
5:35 AM 12.2 °F -6.3 °F 3.2 °F 67% 30.06 in 10.0 mi NW 20.7 mph - N/A   Mostly Cloudy
5:55 AM 10.4 °F -8.2 °F 3.2 °F 73% 30.07 in 10.0 mi NW 19.6 mph 23.0 mph N/A   Scattered Clouds
6:15 AM 10.4 °F -7.2 °F 3.2 °F 73% 30.08 in 10.0 mi NW 17.3 mph 23.0 mph N/A   Partly Cloudy
6:35 AM 10.4 °F -7.7 °F 3.2 °F 73% 30.09 in 10.0 mi WNW 18.4 mph 23.0 mph N/A   Clear
6:55 AM 10.4 °F -7.2 °F 3.2 °F 73% 30.11 in 10.0 mi WNW 17.3 mph - N/A   Clear
7:15 AM 10.4 °F -6.6 °F 3.2 °F 73% 30.12 in 10.0 mi NW 16.1 mph - N/A   Clear
7:35 AM 10.4 °F -4.8 °F 5.0 °F 79% 30.12 in 10.0 mi NW 12.7 mph - N/A   Clear
7:55 AM 10.4 °F -5.4 °F 5.0 °F 79% 30.14 in 10.0 mi WNW 13.8 mph - N/A   Clear
8:15 AM 10.4 °F -4.8 °F 5.0 °F 79% 30.15 in 10.0 mi NW 12.7 mph - N/A   Clear
8:35 AM 10.4 °F -4.8 °F 3.2 °F 73% 30.17 in 10.0 mi WNW 12.7 mph - N/A   Clear
8:55 AM 10.4 °F -6.0 °F 5.0 °F 79% 30.17 in 10.0 mi WNW 15.0 mph - N/A   Clear
9:15 AM 10.4 °F -6.0 °F 3.2 °F 73% 30.19 in 10.0 mi NW 15.0 mph - N/A   Clear
9:35 AM 10.4 °F -6.6 °F 5.0 °F 79% 30.20 in 10.0 mi WNW 16.1 mph 20.7 mph N/A   Scattered Clouds
9:55 AM 10.4 °F -7.2 °F 5.0 °F 79% 30.20 in 10.0 mi NW 17.3 mph - N/A   Partly Cloudy
10:15 AM 12.2 °F -3.7 °F 6.8 °F 79% 30.22 in 10.0 mi NW 15.0 mph 19.6 mph N/A   Clear
10:35 AM 12.2 °F -4.8 °F 6.8 °F 79% 30.23 in 10.0 mi WNW 17.3 mph - N/A   Clear
10:55 AM 12.2 °F -3.1 °F 5.0 °F 73% 30.24 in 10.0 mi WNW 13.8 mph - N/A   Clear
11:15 AM 12.2 °F -3.7 °F 6.8 °F 79% 30.24 in 10.0 mi WNW 15.0 mph - N/A   Clear
11:35 AM 14.0 °F -0.2 °F 6.8 °F 73% 30.25 in 10.0 mi West 12.7 mph 17.3 mph N/A   Clear
11:55 AM 14.0 °F -0.2 °F 8.6 °F 79% 30.25 in 10.0 mi WNW 12.7 mph 19.6 mph N/A   Partly Cloudy
12:15 PM 14.0 °F -1.4 °F 6.8 °F 73% 30.26 in 10.0 mi WNW 15.0 mph 18.4 mph N/A   Partly Cloudy
12:35 PM 15.8 °F 3.4 °F 8.6 °F 73% 30.26 in 10.0 mi WNW 10.4 mph - N/A   Clear
12:55 PM 15.8 °F 0.9 °F 8.6 °F 73% 30.26 in 10.0 mi NW 15.0 mph - N/A   Clear
1:15 PM 15.8 °F 1.4 °F 8.6 °F 73% 30.26 in 10.0 mi NW 13.8 mph - N/A   Clear
1:35 PM 15.8 °F 2.1 °F 8.6 °F 73% 30.26 in 10.0 mi NW 12.7 mph 17.3 mph N/A   Clear
1:55 PM 15.8 °F 2.7 °F 8.6 °F 73% 30.26 in 10.0 mi NW 11.5 mph - N/A   Clear
2:15 PM 15.8 °F 3.4 °F 8.6 °F 73% 30.26 in 10.0 mi WNW 10.4 mph - N/A   Clear
2:35 PM 17.6 °F 5.7 °F 10.4 °F 73% 30.27 in 10.0 mi NW 10.4 mph - N/A   Clear
2:55 PM 15.8 °F 2.1 °F 8.6 °F 73% 30.27 in 10.0 mi NW 12.7 mph - N/A   Clear
3:15 PM 15.8 °F 3.4 °F 10.4 °F 79% 30.28 in 10.0 mi WNW 10.4 mph - N/A   Clear
3:35 PM 15.8 °F 3.4 °F 10.4 °F 79% 30.30 in 10.0 mi NW 10.4 mph - N/A   Clear
3:55 PM 15.8 °F 5.1 °F 10.4 °F 79% 30.30 in 10.0 mi WNW 8.1 mph - N/A   Clear
4:15 PM 15.8 °F 6.1 °F 10.4 °F 79% 30.31 in 10.0 mi WNW 6.9 mph - N/A   Clear
4:35 PM 15.8 °F 6.1 °F 8.6 °F 73% 30.32 in 10.0 mi WNW 6.9 mph - N/A   Clear
4:55 PM 14.0 °F 2.9 °F 8.6 °F 79% 30.33 in 10.0 mi WNW 8.1 mph - N/A   Clear
5:15 PM 14.0 °F 5.1 °F 10.4 °F 86% 30.34 in 10.0 mi West 5.8 mph - N/A   Clear
5:35 PM 12.2 °F 2.9 °F 8.6 °F 85% 30.34 in 10.0 mi WNW 5.8 mph - N/A   Clear
5:55 PM 12.2 °F 2.9 °F 10.4 °F 92% 30.34 in 10.0 mi WNW 5.8 mph - N/A   Clear
6:15 PM 12.2 °F 2.9 °F 6.8 °F 79% 30.34 in 10.0 mi NNW 5.8 mph - N/A   Clear
6:35 PM 12.2 °F 1.7 °F 8.6 °F 85% 30.34 in 10.0 mi North 6.9 mph - N/A   Clear
6:55 PM 12.2 °F -0.2 °F 8.6 °F 85% 30.34 in 10.0 mi North 9.2 mph - N/A   Clear
7:15 PM 12.2 °F 2.9 °F 8.6 °F 85% 30.34 in 10.0 mi North 5.8 mph - N/A   Clear
7:35 PM 12.2 °F 0.7 °F 8.6 °F 85% 30.33 in 10.0 mi NNE 8.1 mph - N/A   Clear
7:55 PM 12.2 °F 2.9 °F 6.8 °F 79% 30.33 in 10.0 mi North 5.8 mph - N/A   Clear
8:15 PM 10.4 °F - 6.8 °F 85% 30.34 in 10.0 mi Calm Calm - N/A   Clear
8:35 PM 12.2 °F - 8.6 °F 85% 30.35 in 10.0 mi Calm Calm - N/A   Clear
8:55 PM 10.4 °F - 8.6 °F 92% 30.35 in 10.0 mi Calm Calm - N/A   Clear
9:15 PM 10.4 °F - 8.6 °F 92% 30.35 in 10.0 mi Calm Calm - N/A   Clear
9:35 PM 10.4 °F - 8.6 °F 92% 30.35 in 10.0 mi Calm Calm - N/A   Clear
9:55 PM 10.4 °F 4.0 °F 6.8 °F 85% 30.36 in 10.0 mi East 3.5 mph - N/A   Clear
10:15 PM 10.4 °F - 8.6 °F 92% 30.37 in 10.0 mi Calm Calm - N/A   Clear
10:35 PM 8.6 °F - 6.8 °F 92% 30.37 in 10.0 mi Calm Calm - N/A   Clear
10:55 PM 8.6 °F 2.0 °F 8.6 °F 100% 30.36 in 10.0 mi ESE 3.5 mph - N/A   Clear
11:15 PM 8.6 °F 2.0 °F 5.0 °F 85% 30.37 in 10.0 mi ESE 3.5 mph - N/A   Clear
11:35 PM 8.6 °F - 3.2 °F 79% 30.37 in 10.0 mi Calm Calm - N/A   Clear
11:55 PM 8.6 °F 0.1 °F 6.8 °F 92% 30.36 in 10.0 mi SE 4.6 mph - N/A   Clear